Tracking 35237 objects as of 5-Sep-2026
HD Live streaming from Space Station
objects crossing your sky now

DMSP 5D-2 F13 DEB

Track DMSP 5D-2 F13 DEB now!
10-day predictions


NORAD ID: 40447
Int'l Code: 1995-015AZ
Launch date: March 24, 1995
Source: United States (US)
Launch site: AIR FORCE WESTERN TEST RANGE (AFWTR)

Note: This is SATELLITE DEBRIS
Your satellite tracking list
Your tracking list is empty




NASA's NSSDC Master Catalog

Two Line Element Set (TLE):
1 40447U 95015AZ  26248.04927444  .00001300  00000-0  50273-3 0  9999
2 40447  98.6367 274.3996 0013990  95.5718 264.7061 14.31748892597696
Source of the keplerian elements: AFSPC